Burnsville, North Carolina, United States (28714)
Lat: 35.92N, Lon: 82.3W
Wx Zone: NCZ049
Local Info
Past Weather Observations for Today

NOTE: This archive is for the closest National Weather Service station to Burnsville. Information may differ from the station used for current weather conditions.

Click here for Long-term Archive

Time Weather Temperature Dewpoint Humidity Pressure Winds Precip Visibility
15:54
Mostly Cloudy
77°F / 25°C 72°F / 22°C 83% 30.09 in
(1019 mb)
Variable 3.5 mph
(Variable 6 kph)
0.03 in
(0.76 mm)
10SM
15:52
Mostly Cloudy
77°F / 25°C 70°F / 21°C 79% 30.09 in
(1019 mb)
SE 3.5 mph
(SE 6 kph)
0.03 in
(0.76 mm)
10SM
15:37
Overcast
Thunder Storms
75°F / 24°C 70°F / 21°C 83% 30.09 in
(1019 mb)
Variable 3.5 mph
(Variable 6 kph)
0.03 in
(0.76 mm)
5SM
14:54
Mostly Cloudy
Light Rain
77°F / 25°C 70°F / 21°C 79% 30.09 in
(1019 mb)
NNW 5.8 mph
(NNW 9 kph)
0.00 in
(0.00 mm)
10SM
14:19
Mostly Cloudy
79°F / 26°C 70°F / 21°C 74% 30.12 in
(1020 mb)
NNW 5.8 mph
(NNW 9 kph)
- 10SM
14:01
Partly Cloudy
Thunder Storms
79°F / 26°C 70°F / 21°C 74% 30.12 in
(1020 mb)
N 3.5 mph
(N 6 kph)
- 10SM
13:54
Mostly Cloudy
75°F / 24°C 70°F / 21°C 83% 30.12 in
(1020 mb)
Calm 0.20 in
(5.08 mm)
10SM
13:16
Overcast
Light Rain
72°F / 22°C 66°F / 19°C 83% 30.15 in
(1021 mb)
N 6.9 mph
(N 11 kph)
0.20 in
(5.08 mm)
4SM
13:00
Overcast
Heavy Rain
70°F / 21°C 66°F / 19°C 88% 30.15 in
(1021 mb)
NW 4.6 mph
(NW 7 kph)
0.04 in
(1.02 mm)
1 3/4SM
12:54
Overcast
Rain
70°F / 21°C 66°F / 19°C 88% 30.15 in
(1021 mb)
Calm 0.72 in
(18.29 mm)
3SM
12:50
Overcast
Heavy Rain
72°F / 22°C 64°F / 18°C 78% 30.15 in
(1021 mb)
ENE 3.5 mph
(ENE 6 kph)
0.71 in
(18.03 mm)
2SM
12:43
Overcast
Heavy Rain
70°F / 21°C 66°F / 19°C 88% 30.15 in
(1021 mb)
Variable 6.9 mph
(Variable 11 kph)
0.56 in
(14.22 mm)
1SM
12:40
Overcast
Thunder Storms
70°F / 21°C 66°F / 19°C 88% 30.15 in
(1021 mb)
E 8.1 mph
(E 13 kph)
0.50 in
(12.70 mm)
3/4SM
12:22
Mostly Cloudy
Thunder Storms
73°F / 23°C 68°F / 20°C 83% 30.18 in
(1022 mb)
W 9.2 mph
(W 15 kph)
0.11 in
(2.79 mm)
1 1/4SM
12:18
Mostly Cloudy
Thunder Storms
75°F / 24°C 70°F / 21°C 83% 30.18 in
(1022 mb)
WNW 10.4 mph
(WNW 17 kph)
0.07 in
(1.78 mm)
2SM
12:07
Mostly Cloudy
Thunder Storms
81°F / 27°C 66°F / 19°C 62% 30.15 in
(1021 mb)
NW 11.5 mph
(NW 19 kph)
0.00 in
(0.00 mm)
9SM
11:54
Partly Cloudy
86°F / 30°C 66°F / 19°C 52% 30.15 in
(1021 mb)
NNE 8.1 mph
(NNE 13 kph)
- 10SM
10:54
Clear
82°F / 28°C 64°F / 18°C 55% 30.18 in
(1022 mb)
N 6.9 mph
(N 11 kph)
- 10SM
09:54
Clear
81°F / 27°C 66°F / 19°C 62% 30.18 in
(1022 mb)
Calm - 10SM
08:54
Clear
75°F / 24°C 66°F / 19°C 74% 30.18 in
(1022 mb)
NNW 4.6 mph
(NNW 7 kph)
- 10SM
07:54
Clear
70°F / 21°C 66°F / 19°C 88% 30.18 in
(1022 mb)
NNW 5.8 mph
(NNW 9 kph)
- 10SM
06:54
Clear
66°F / 19°C 64°F / 18°C 94% 30.18 in
(1022 mb)
Calm - 10SM
05:54
Partly Cloudy
64°F / 18°C 63°F / 17°C 94% 30.18 in
(1022 mb)
Calm - 10SM
05:50
Partly Cloudy
64°F / 18°C 63°F / 17°C 94% 30.18 in
(1022 mb)
Calm - 10SM
04:54
Clear
66°F / 19°C 64°F / 18°C 94% 30.18 in
(1022 mb)
NNW 3.5 mph
(NNW 6 kph)
- 10SM
04:31
Partly Cloudy
66°F / 19°C 64°F / 18°C 94% 30.18 in
(1022 mb)
NNW 4.6 mph
(NNW 7 kph)
- 10SM
04:24
Mostly Cloudy
66°F / 19°C 64°F / 18°C 94% 30.18 in
(1022 mb)
NNW 3.5 mph
(NNW 6 kph)
- 10SM
04:16
Partly Cloudy
66°F / 19°C 64°F / 18°C 94% 30.18 in
(1022 mb)
Calm - 10SM
03:54
Clear
66°F / 19°C 64°F / 18°C 94% 30.15 in
(1021 mb)
NNW 4.6 mph
(NNW 7 kph)
- 10SM
03:18
Partly Cloudy
66°F / 19°C 64°F / 18°C 94% 30.15 in
(1021 mb)
NNW 4.6 mph
(NNW 7 kph)
- 10SM
03:07
Mostly Cloudy
66°F / 19°C 64°F / 18°C 94% 30.15 in
(1021 mb)
NNW 5.8 mph
(NNW 9 kph)
- 10SM
02:54
Mostly Cloudy
66°F / 19°C 64°F / 18°C 94% 30.15 in
(1021 mb)
Calm - 10SM
02:51
Mostly Cloudy
66°F / 19°C 64°F / 18°C 94% 30.15 in
(1021 mb)
Calm - 10SM
02:44
Partly Cloudy
Fog And Mist
66°F / 19°C 64°F / 18°C 94% 30.15 in
(1021 mb)
Calm - 3SM
02:41
Partly Cloudy
Fog And Mist
66°F / 19°C 64°F / 18°C 94% 30.18 in
(1022 mb)
Calm - 1 3/4SM
02:33
Partly Cloudy
Fog And Mist
66°F / 19°C 64°F / 18°C 94% 30.18 in
(1022 mb)
Calm - 2 1/2SM
01:54
Clear
68°F / 20°C 66°F / 19°C 94% 30.18 in
(1022 mb)
NNW 4.6 mph
(NNW 7 kph)
- 10SM
00:54
Clear
68°F / 20°C 66°F / 19°C 94% 30.18 in
(1022 mb)
Calm - 10SM
Time Weather Temperature Dewpoint Humidity Pressure Winds Precip Visibility


Weather for websites

WeatherForYou.com, LLC is not responsible for any damages or problems caused by this service. Current weather conditions are obtained from the closest station including government and personal stations which may have varying degrees of accuracy. Weather forecasts are derived from the NOAA NDFD. Like all things, this site belongs to Jesus Christ... He just trusts me to maintain it. If you have any questions or comments email webmaster@weatherforyou.com

Copyright © 2014, WeatherForYou.com LLC. All rights reserved.